{"data":{"norad_id":68235,"epoch":"2026-05-25T04:00:03.998880Z","epoch_age_seconds":63790,"freshness":"FRESH","line1":"1 68235U 26054D   26145.16671295  .00010151  00000+0  31133-3 0  9997","line2":"2 68235  53.1588 295.2398 0000562  97.5447 136.8385 15.34383056  5897","mean_motion":15.34383056,"eccentricity":5.62e-5,"inclination_deg":53.1588,"raan_deg":295.2398,"arg_perigee_deg":97.5447,"mean_anomaly_deg":136.8385,"bstar":0.00031133,"rev_number":589,"period_min":93.848794430379,"perigee_km":462.36914375751,"apogee_km":463.13805986115,"semimajor_km":6840.8906018093,"source":"CELESTRAK","updated_at":"2026-05-25T13:38:21.883422Z"}}